Time,TemperatureF,DewpointF,PressureIn,WindDirection,WindDirectionDegrees,WindSpeedMPH,WindSpeedGustMPH,Humidity,HourlyPrecipIn,Conditions,Clouds,dailyrainin,SoftwareType,DateUTC
2013-04-29 00:14:00,56.1,4.0,29.65,South,188,0.0,1.0,12,0.00,,,0.00,weatherlink.com 1.10,2013-04-29 06:14:00,
2013-04-29 00:30:00,55.4,8.0,29.65,SSE,148,0.0,0.0,15,0.00,,,0.00,weatherlink.com 1.10,2013-04-29 06:30:00,
2013-04-29 00:45:00,54.3,6.0,29.65,SSE,148,0.0,1.0,14,0.00,,,0.00,weatherlink.com 1.10,2013-04-29 06:45:00,
2013-04-29 00:59:00,53.6,8.0,29.65,SSE,148,0.0,1.0,16,0.00,,,0.00,weatherlink.com 1.10,2013-04-29 06:59:00,
2013-04-29 01:15:00,52.9,10.0,29.65,SSE,148,0.0,1.0,18,0.00,,,0.00,weatherlink.com 1.10,2013-04-29 07:15:00,
2013-04-29 01:29:00,52.3,8.0,29.65,SSE,148,0.0,1.0,17,0.00,,,0.00,weatherlink.com 1.10,2013-04-29 07:29:00,
2013-04-29 01:45:00,52.2,6.0,29.64,SSE,148,0.0,1.0,15,0.00,,,0.00,weatherlink.com 1.10,2013-04-29 07:45:00,
2013-04-29 02:00:00,52.7,4.0,29.64,East,97,0.0,3.0,14,0.00,,,0.00,weatherlink.com 1.10,2013-04-29 08:00:00,
2013-04-29 02:15:00,52.5,9.0,29.64,East,97,0.0,0.0,17,0.00,,,0.00,weatherlink.com 1.10,2013-04-29 08:15:00,
2013-04-29 02:30:00,51.7,8.0,29.63,East,97,0.0,0.0,17,0.00,,,0.00,weatherlink.com 1.10,2013-04-29 08:30:00,
2013-04-29 02:45:00,50.5,6.0,29.63,East,97,0.0,0.0,16,0.00,,,0.00,weatherlink.com 1.10,2013-04-29 08:45:00,
2013-04-29 03:00:00,49.8,8.0,29.63,East,97,0.0,1.0,18,0.00,,,0.00,weatherlink.com 1.10,2013-04-29 09:00:00,
2013-04-29 03:15:00,49.2,11.0,29.63,East,97,0.0,0.0,21,0.00,,,0.00,weatherlink.com 1.10,2013-04-29 09:15:00,
2013-04-29 03:30:00,48.8,9.0,29.63,East,97,0.0,0.0,20,0.00,,,0.00,weatherlink.com 1.10,2013-04-29 09:30:00,
2013-04-29 03:45:00,48.4,8.0,29.64,East,97,0.0,0.0,19,0.00,,,0.00,weatherlink.com 1.10,2013-04-29 09:45:00,
2013-04-29 04:00:00,47.9,11.0,29.64,East,97,0.0,0.0,22,0.00,,,0.00,weatherlink.com 1.10,2013-04-29 10:00:00,
2013-04-29 04:15:00,47.7,8.0,29.64,East,97,0.0,0.0,20,0.00,,,0.00,weatherlink.com 1.10,2013-04-29 10:15:00,
2013-04-29 04:30:00,47.9,10.0,29.64,East,97,0.0,0.0,21,0.00,,,0.00,weatherlink.com 1.10,2013-04-29 10:30:00,
2013-04-29 04:45:00,47.7,11.0,29.64,East,97,0.0,0.0,23,0.00,,,0.00,weatherlink.com 1.10,2013-04-29 10:45:00,
2013-04-29 05:00:00,47.0,11.0,29.65,East,97,0.0,1.0,23,0.00,,,0.00,weatherlink.com 1.10,2013-04-29 11:00:00,
2013-04-29 05:15:00,46.0,12.0,29.65,East,97,0.0,0.0,25,0.00,,,0.00,weatherlink.com 1.10,2013-04-29 11:15:00,
2013-04-29 05:30:00,45.4,9.0,29.65,East,97,0.0,0.0,23,0.00,,,0.00,weatherlink.com 1.10,2013-04-29 11:30:00,
2013-04-29 05:45:00,45.3,11.0,29.65,East,97,0.0,0.0,25,0.00,,,0.00,weatherlink.com 1.10,2013-04-29 11:45:00,
2013-04-29 06:00:00,45.6,11.0,29.65,East,97,0.0,0.0,24,0.00,,,0.00,weatherlink.com 1.10,2013-04-29 12:00:00,
2013-04-29 06:15:00,45.6,13.0,29.65,East,97,0.0,1.0,27,0.00,,,0.00,weatherlink.com 1.10,2013-04-29 12:15:00,
2013-04-29 06:30:00,45.7,12.0,29.66,East,97,0.0,0.0,25,0.00,,,0.00,weatherlink.com 1.10,2013-04-29 12:30:00,
2013-04-29 06:45:00,45.6,15.0,29.66,East,101,0.0,1.0,29,0.00,,,0.00,weatherlink.com 1.10,2013-04-29 12:45:00,
2013-04-29 07:00:00,46.6,13.0,29.66,East,101,0.0,1.0,26,0.00,,,0.00,weatherlink.com 1.10,2013-04-29 13:00:00,
2013-04-29 07:15:00,49.5,9.0,29.67,East,89,0.0,0.0,19,0.00,,,0.00,weatherlink.com 1.10,2013-04-29 13:15:00,
2013-04-29 07:30:00,52.1,11.0,29.67,East,87,0.0,1.0,19,0.00,,,0.00,weatherlink.com 1.10,2013-04-29 13:30:00,
2013-04-29 07:46:00,55.3,10.0,29.67,ESE,109,0.0,2.0,16,0.00,,,0.00,weatherlink.com 1.10,2013-04-29 13:46:00,
2013-04-29 08:01:00,57.6,8.0,29.67,SSE,156,0.0,1.0,14,0.00,,,0.00,weatherlink.com 1.10,2013-04-29 14:01:00,
2013-04-29 08:16:00,59.3,6.0,29.67,SE,129,0.0,0.0,12,0.00,,,0.00,weatherlink.com 1.10,2013-04-29 14:16:00,
2013-04-29 08:31:00,60.7,6.0,29.68,ESE,123,0.0,0.0,11,0.00,,,0.00,weatherlink.com 1.10,2013-04-29 14:31:00,
2013-04-29 08:46:00,62.2,5.0,29.68,SSE,155,0.0,2.0,10,0.00,,,0.00,weatherlink.com 1.10,2013-04-29 14:46:00,
2013-04-29 09:01:00,63.6,6.0,29.67,South,187,2.0,4.0,10,0.00,,,0.00,weatherlink.com 1.10,2013-04-29 15:01:00,
2013-04-29 09:16:00,64.9,4.0,29.66,SW,225,0.0,3.0,9,0.00,,,0.00,weatherlink.com 1.10,2013-04-29 15:16:00,
2013-04-29 09:31:00,66.5,6.0,29.66,South,179,0.0,4.0,9,0.00,,,0.00,weatherlink.com 1.10,2013-04-29 15:31:00,
2013-04-29 09:46:00,67.9,4.0,29.66,SSW,207,0.0,6.0,8,0.00,,,0.00,weatherlink.com 1.10,2013-04-29 15:46:00,
2013-04-29 10:01:00,68.9,5.0,29.66,SSW,200,4.0,7.0,8,0.00,,,0.00,weatherlink.com 1.10,2013-04-29 16:01:00,
2013-04-29 10:16:00,69.5,5.0,29.66,SSW,196,4.0,7.0,8,0.00,,,0.00,weatherlink.com 1.10,2013-04-29 16:16:00,
2013-04-29 10:31:00,71.1,4.0,29.65,WSW,245,0.0,5.0,7,0.00,,,0.00,weatherlink.com 1.10,2013-04-29 16:31:00,
2013-04-29 10:46:00,71.6,4.0,29.65,SW,217,6.0,6.0,7,0.00,,,0.00,weatherlink.com 1.10,2013-04-29 16:46:00,
2013-04-29 11:01:00,72.7,5.0,29.65,SW,228,0.0,5.0,7,0.00,,,0.00,weatherlink.com 1.10,2013-04-29 17:01:00,
2013-04-29 11:16:00,73.5,9.0,29.65,WSW,247,3.0,7.0,8,0.00,,,0.00,weatherlink.com 1.10,2013-04-29 17:16:00,
2013-04-29 11:31:00,74.1,6.0,29.65,WSW,245,1.0,7.0,7,0.00,,,0.00,weatherlink.com 1.10,2013-04-29 17:31:00,
2013-04-29 11:46:00,75.4,7.0,29.64,SW,216,1.0,8.0,7,0.00,,,0.00,weatherlink.com 1.10,2013-04-29 17:46:00,
2013-04-29 12:01:00,77.4,8.0,29.63,SSW,209,4.0,10.0,7,0.00,,,0.00,weatherlink.com 1.10,2013-04-29 18:01:00,
2013-04-29 12:16:00,78.0,9.0,29.62,WSW,250,5.0,8.0,7,0.00,,,0.00,weatherlink.com 1.10,2013-04-29 18:16:00,
2013-04-29 12:31:00,79.1,10.0,29.61,West,259,4.0,9.0,7,0.00,,,0.00,weatherlink.com 1.10,2013-04-29 18:31:00,
2013-04-29 12:47:00,79.5,10.0,29.59,SSW,210,6.0,6.0,7,0.00,,,0.00,weatherlink.com 1.10,2013-04-29 18:47:00,
2013-04-29 13:02:00,79.7,13.0,29.59,NW,323,5.0,10.0,8,0.00,,,0.00,weatherlink.com 1.10,2013-04-29 19:02:00,
2013-04-29 13:17:00,80.1,10.0,29.57,SSW,211,7.0,7.0,7,0.00,,,0.00,weatherlink.com 1.10,2013-04-29 19:17:00,
2013-04-29 13:32:00,81.0,11.0,29.57,SSE,167,0.0,8.0,7,0.00,,,0.00,weatherlink.com 1.10,2013-04-29 19:32:00,
2013-04-29 13:47:00,80.9,11.0,29.55,NNE,19,2.0,11.0,7,0.00,,,0.00,weatherlink.com 1.10,2013-04-29 19:47:00,
2013-04-29 14:02:00,81.6,12.0,29.54,NW,319,10.0,11.0,7,0.00,,,0.00,weatherlink.com 1.10,2013-04-29 20:02:00,
2013-04-29 14:17:00,82.9,13.0,29.53,NW,318,4.0,9.0,7,0.00,,,0.00,weatherlink.com 1.10,2013-04-29 20:17:00,
2013-04-29 14:32:00,83.5,10.0,29.52,NW,321,0.0,10.0,6,0.00,,,0.00,weatherlink.com 1.10,2013-04-29 20:32:00,
2013-04-29 14:47:00,83.5,10.0,29.52,NW,314,11.0,16.0,6,0.00,,,0.00,weatherlink.com 1.10,2013-04-29 20:47:00,
2013-04-29 15:02:00,83.6,6.0,29.51,WSW,244,9.0,13.0,5,0.00,,,0.00,weatherlink.com 1.10,2013-04-29 21:02:00,
2013-04-29 15:17:00,84.7,10.0,29.50,SW,234,13.0,16.0,6,0.00,,,0.00,weatherlink.com 1.10,2013-04-29 21:17:00,
2013-04-29 15:32:00,85.0,11.0,29.48,WNW,293,12.0,16.0,6,0.00,,,0.00,weatherlink.com 1.10,2013-04-29 21:32:00,
2013-04-29 15:47:00,84.4,10.0,29.48,SSW,209,2.0,14.0,6,0.00,,,0.00,weatherlink.com 1.10,2013-04-29 21:47:00,
2013-04-29 16:02:00,85.4,7.0,29.47,West,271,0.0,6.0,5,0.00,,,0.00,weatherlink.com 1.10,2013-04-29 22:02:00,
2013-04-29 16:17:00,85.5,7.0,29.46,West,261,10.0,16.0,5,0.00,,,0.00,weatherlink.com 1.10,2013-04-29 22:17:00,
2013-04-29 16:32:00,85.8,7.0,29.45,WSW,249,11.0,12.0,5,0.00,,,0.00,weatherlink.com 1.10,2013-04-29 22:32:00,
2013-04-29 16:47:00,84.4,6.0,29.45,WSW,246,10.0,12.0,5,0.00,,,0.00,weatherlink.com 1.10,2013-04-29 22:47:00,
2013-04-29 17:02:00,84.6,10.0,29.44,WSW,240,5.0,15.0,6,0.00,,,0.00,weatherlink.com 1.10,2013-04-29 23:02:00,
2013-04-29 17:17:00,84.3,10.0,29.44,SW,234,4.0,12.0,6,0.00,,,0.00,weatherlink.com 1.10,2013-04-29 23:17:00,
2013-04-29 17:32:00,84.5,10.0,29.43,West,271,16.0,16.0,6,0.00,,,0.00,weatherlink.com 1.10,2013-04-29 23:32:00,
2013-04-29 17:47:00,84.3,10.0,29.43,West,261,7.0,20.0,6,0.00,,,0.00,weatherlink.com 1.10,2013-04-29 23:47:00,
2013-04-29 18:02:00,82.8,9.0,29.43,West,273,10.0,19.0,6,0.00,,,0.00,weatherlink.com 1.10,2013-04-30 00:02:00,
2013-04-29 18:17:00,81.4,11.0,29.43,WNW,300,5.0,14.0,7,0.00,,,0.00,weatherlink.com 1.10,2013-04-30 00:17:00,
2013-04-29 18:32:00,80.7,11.0,29.43,WSW,255,8.0,12.0,7,0.00,,,0.00,weatherlink.com 1.10,2013-04-30 00:32:00,
2013-04-29 18:47:00,81.3,11.0,29.43,WSW,257,10.0,19.0,7,0.00,,,0.00,weatherlink.com 1.10,2013-04-30 00:47:00,
2013-04-29 19:02:00,80.6,11.0,29.42,NW,326,0.0,10.0,7,0.00,,,0.00,weatherlink.com 1.10,2013-04-30 01:02:00,
2013-04-29 19:17:00,80.7,11.0,29.43,WSW,249,5.0,11.0,7,0.00,,,0.00,weatherlink.com 1.10,2013-04-30 01:17:00,
2013-04-29 19:32:00,80.5,14.0,29.42,WSW,250,0.0,1.0,8,0.00,,,0.00,weatherlink.com 1.10,2013-04-30 01:32:00,
2013-04-29 19:47:00,79.7,16.0,29.42,WSW,250,0.0,1.0,9,0.00,,,0.00,weatherlink.com 1.10,2013-04-30 01:47:00,
2013-04-29 20:02:00,78.9,10.0,29.43,WSW,257,1.0,8.0,7,0.00,,,0.00,weatherlink.com 1.10,2013-04-30 02:02:00,
2013-04-29 20:16:00,78.8,9.0,29.43,WSW,246,2.0,11.0,7,0.00,,,0.00,weatherlink.com 1.10,2013-04-30 02:16:00,
2013-04-29 20:31:00,78.0,12.0,29.43,WSW,256,1.0,11.0,8,0.00,,,0.00,weatherlink.com 1.10,2013-04-30 02:31:00,
2013-04-29 20:47:00,77.2,11.0,29.43,SW,236,4.0,10.0,8,0.00,,,0.00,weatherlink.com 1.10,2013-04-30 02:47:00,
2013-04-29 21:02:00,76.7,11.0,29.44,West,267,5.0,10.0,8,0.00,,,0.00,weatherlink.com 1.10,2013-04-30 03:02:00,
2013-04-29 21:18:00,75.5,13.0,29.44,WNW,286,1.0,4.0,9,0.00,,,0.00,weatherlink.com 1.10,2013-04-30 03:18:00,
2013-04-29 21:32:00,73.6,16.0,29.45,NW,313,1.0,3.0,11,0.00,,,0.00,weatherlink.com 1.10,2013-04-30 03:32:00,
2013-04-29 21:48:00,73.2,13.0,29.45,WNW,288,0.0,5.0,10,0.00,,,0.00,weatherlink.com 1.10,2013-04-30 03:48:00,
2013-04-29 22:03:00,72.7,13.0,29.45,WNW,290,0.0,3.0,10,0.00,,,0.00,weatherlink.com 1.10,2013-04-30 04:03:00,
2013-04-29 22:18:00,71.2,16.0,29.45,WNW,290,0.0,3.0,12,0.00,,,0.00,weatherlink.com 1.10,2013-04-30 04:18:00,
2013-04-29 22:33:00,69.4,16.0,29.45,WNW,290,0.0,0.0,13,0.00,,,0.00,weatherlink.com 1.10,2013-04-30 04:33:00,
2013-04-29 22:48:00,67.5,16.0,29.45,WNW,290,0.0,0.0,14,0.00,,,0.00,weatherlink.com 1.10,2013-04-30 04:48:00,
2013-04-29 23:02:00,66.3,17.0,29.45,NW,314,0.0,1.0,15,0.00,,,0.00,weatherlink.com 1.10,2013-04-30 05:02:00,
2013-04-29 23:18:00,65.2,13.0,29.44,NW,314,0.0,1.0,13,0.00,,,0.00,weatherlink.com 1.10,2013-04-30 05:18:00,
2013-04-29 23:32:00,64.2,24.0,29.45,NW,313,0.0,1.0,22,0.00,,,0.00,weatherlink.com 1.10,2013-04-30 05:32:00,
2013-04-29 23:48:00,63.1,16.0,29.45,NW,304,0.0,0.0,16,0.00,,,0.00,weatherlink.com 1.10,2013-04-30 05:48:00,